Regional Weather Roundup
Issued by NWS

Home | Current Version | Previous Version | Graphics & Text | Print | Product List | Glossary On
Versions: 1 2 3 4 5 6 7 8 9 10 11 12 13 14 15 16 17 18 19 20 21 22 23 24 25 26 27 28 29 30 31 32 33 34 35 36 37 38 39 40 41 42 43 44 45 46 47 48 49 50
000
ASUS45 KSLC 030610
RWRUT

UTAH REGIONAL WEATHER ROUNDUP
NATIONAL WEATHER SERVICE SALT LAKE CITY UT
1200 AM MDT WED JUN 03 2015

UTZ001>011-023>025-030700-

NORTHERN UTAH

CITY           SKY/WX    TMP DP  RH WIND       PRES   REMARKS
BRIGHAM CITY   CLEAR     62  48  61 N8        29.92F
HILL AFB       CLEAR     63  39  41 E10       29.93F
LOGAN          CLEAR     58  48  69 SW8       29.96R
OGDEN          CLEAR     61  43  51 SE3       29.91F
PROVO AIRPORT  PTCLDY    63  45  51 S7        29.92S
SALT LAKE CITY PTCLDY    66  49  54 S3        29.90F
VERNAL         PTCLDY    65  36  34 N6        29.96R
WENDOVER       CLEAR     72  27  18 N10       29.92S
HEBER CITY     PTCLDY    50  37  62 SE3       29.99S
WEST JORDAN    CLEAR     64  39  39 W5        29.93F

$$

UTZ012>022-026-027-030700-

SOUTHERN/CENTRAL UTAH

CITY           SKY/WX    TMP DP  RH WIND       PRES   REMARKS
BLANDING       CLEAR     58  25  27 N8        30.07S
BRYCE CANYON   CLEAR     43  26  51 W7        30.15S
CEDAR CITY     CLEAR     61  22  22 SE10      29.99F
DELTA          CLEAR     67  18  14 SE10      29.91S
HANKSVILLE     CLEAR     68  14  12 CALM      29.89R
MILFORD        CLEAR     66  21  18 S14       29.94F
MOAB/CYNLANDS  CLEAR     67  16  14 CALM      29.86F
PRICE          CLEAR     63  24  22 N9        29.97F
ST GEORGE      PTCLDY    72  16  12 SE9       29.85F
KANAB          CLEAR     54  32  43 NE5       30.02R

$$

REGIONAL REPORTS     COLORADO/ARIZONA

CITY           SKY/WX    TMP DP  RH WIND       PRES   REMARKS
CRAIG, CO      CLEAR     48  39  71 CALM      30.03S
GRAND JUNCTION CLEAR     61  25  25 E6        29.92F
RIFLE          CLEAR     56  36  47 CALM      30.00R
MONTROSE       CLEAR     60  28  29 SE10      30.04S
CORTEZ         CLEAR     51  33  50 CALM      30.05S
PAGE, AZ       CLEAR     77  17  10 SW5       29.91S
GRAND CANYON   CLEAR     41  18  39 E3        30.13S
KINGMAN        CLEAR     69  19  15 S12       29.91F
FLAGSTAFF      CLEAR     47  21  35 SW5       30.16F

$$

REGIONAL REPORTS    NEVADA/IDAHO/WYOMING

CITY           SKY/WX    TMP DP  RH WIND       PRES   REMARKS
LAS VEGAS, NV  CLEAR     83  23  11 S13       29.73F
ELY            CLEAR     53  38  56 SE8       30.03R
ELKO           CLEAR     59  32  36 CALM      29.99S
POCATELLO, ID  CLOUDY    58  47  66 S7        29.99S
BURLEY         CLEAR     55  45  68 SW5       29.96S
EVANSTON, WY   PTCLDY    58  36  43 CALM      30.09F
ROCK SPRINGS   PTCLDY    57  31  37 W7        30.08S
KEMMERER       PTCLDY    50  39  66 N10       30.12S

$$


USA.gov is the U.S. government's official web portal to all federal, state and local government web resources and services.